SAS366 ENGM-ENVA

Flight info

Callsign SAS366
Flight time 0h 42m
Altitude 30000
Route ENGM/19R RIBBE DCT GIGNI DCT VEVOD
Aircraft A321/M-SDE3FGHIRWY/LB1

Departure

Time 2026-04-30 17:49
Airport Oslo-Gardermoen International Airport (ENGM)

Arrival

Time 2026-04-30 18:32
Airport Trondheim Airport, Værnes (ENVA)
Time Latitude Longitude Altitude Speed Heading
2026-04-30 17:39 60.19575 11.09764 679 ft 0 kts 196°
2026-04-30 17:42 60.19574 11.09763 679 ft 0 kts 207°
2026-04-30 17:42 60.19598 11.09706 679 ft 5 kts 319°
2026-04-30 17:43 60.19660 11.09556 680 ft 6 kts 284°
2026-04-30 17:44 60.19729 11.09061 679 ft 16 kts 286°
2026-04-30 17:44 60.19873 11.08725 677 ft 11 kts 16°
2026-04-30 17:46 60.20381 11.09019 680 ft 20 kts 15°
2026-04-30 17:47 60.20664 11.08944 680 ft 3 kts 286°
2026-04-30 17:48 60.20684 11.08804 679 ft 7 kts 286°
2026-04-30 17:48 60.20674 11.08631 678 ft 1 kts 196°
2026-04-30 17:49 60.17627 11.06862 1902 ft 160 kts 200°
2026-04-30 17:50 60.14934 10.99437 3802 ft 205 kts 250°
2026-04-30 17:51 60.14573 10.89935 5202 ft 256 kts 281°
2026-04-30 17:52 60.16819 10.80513 7537 ft 267 kts 327°
2026-04-30 17:53 60.25739 10.83591 10987 ft 308 kts 44°
2026-04-30 17:54 60.32226 10.97025 12947 ft 349 kts 43°
2026-04-30 17:55 60.39473 11.10032 15534 ft 353 kts 16°
2026-04-30 17:56 60.49057 11.14769 17967 ft 363 kts 10°
2026-04-30 17:57 60.56370 11.18741 19709 ft 369 kts 11°
2026-04-30 17:58 60.63837 11.22963 21299 ft 377 kts 11°
2026-04-30 17:59 60.74029 11.28796 23333 ft 387 kts 11°
2026-04-30 18:00 60.84528 11.34854 25155 ft 399 kts 11°
2026-04-30 18:00 60.92582 11.39536 26455 ft 405 kts 11°
2026-04-30 18:01 60.97934 11.42666 27582 ft 401 kts 11°
2026-04-30 18:02 61.05944 11.47010 29117 ft 395 kts
2026-04-30 18:02 61.14124 11.48237 30189 ft 396 kts 356°
2026-04-30 18:04 61.30640 11.48256 30276 ft 398 kts 355°
2026-04-30 18:06 61.52701 11.48319 30282 ft 397 kts 355°
2026-04-30 18:08 61.71947 11.48390 30280 ft 397 kts 355°
2026-04-30 18:10 61.93921 11.48482 30279 ft 396 kts 354°
2026-04-30 18:11 62.12997 11.45492 30279 ft 394 kts 348°
2026-04-30 18:13 62.26546 11.42320 29708 ft 391 kts 348°
2026-04-30 18:13 62.34578 11.40434 28900 ft 387 kts 347°
2026-04-30 18:14 62.39931 11.39164 28135 ft 390 kts 347°
2026-04-30 18:15 62.48016 11.37244 26274 ft 391 kts 347°
2026-04-30 18:15 62.55941 11.35364 24803 ft 378 kts 347°
2026-04-30 18:16 62.61113 11.34128 23863 ft 370 kts 347°
2026-04-30 18:16 62.66169 11.32911 22919 ft 365 kts 347°
2026-04-30 18:17 62.68648 11.32313 22457 ft 362 kts 347°
2026-04-30 18:17 62.71139 11.31710 21998 ft 360 kts 347°
2026-04-30 18:17 62.76089 11.30511 21046 ft 358 kts 347°
2026-04-30 18:18 62.78561 11.29919 20582 ft 356 kts 348°
2026-04-30 18:18 62.81045 11.30050 19859 ft 371 kts
2026-04-30 18:18 62.83594 11.31090 18946 ft 383 kts
2026-04-30 18:18 62.86208 11.32327 18133 ft 389 kts
2026-04-30 18:19 62.88826 11.33552 17422 ft 384 kts
2026-04-30 18:19 62.91419 11.34711 16631 ft 381 kts
2026-04-30 18:19 62.93990 11.35820 15876 ft 376 kts
2026-04-30 18:19 62.96502 11.36877 15130 ft 372 kts
2026-04-30 18:20 62.99014 11.37917 14380 ft 366 kts
2026-04-30 18:20 63.01481 11.38937 13443 ft 360 kts
2026-04-30 18:20 63.03926 11.39938 12385 ft 356 kts
2026-04-30 18:20 63.06295 11.40903 11464 ft 347 kts
2026-04-30 18:21 63.08603 11.41857 10824 ft 331 kts
2026-04-30 18:21 63.10778 11.42760 10504 ft 307 kts
2026-04-30 18:21 63.12810 11.43611 10321 ft 285 kts
2026-04-30 18:21 63.14734 11.44400 9984 ft 284 kts
2026-04-30 18:22 63.16660 11.45179 9609 ft 282 kts
2026-04-30 18:22 63.20482 11.46738 8872 ft 279 kts
2026-04-30 18:22 63.22377 11.47520 8513 ft 277 kts
2026-04-30 18:23 63.24270 11.48302 8154 ft 276 kts
2026-04-30 18:23 63.26131 11.49073 7802 ft 274 kts
2026-04-30 18:23 63.28012 11.49853 7441 ft 273 kts
2026-04-30 18:23 63.29849 11.50617 7095 ft 271 kts
2026-04-30 18:24 63.33523 11.52148 6434 ft 267 kts
2026-04-30 18:24 63.35318 11.52902 6338 ft 259 kts
2026-04-30 18:24 63.37080 11.53634 6240 ft 255 kts
2026-04-30 18:25 63.38781 11.53748 6043 ft 242 kts 345°
2026-04-30 18:25 63.41907 11.51499 5420 ft 234 kts 336°
2026-04-30 18:25 63.43420 11.50270 5109 ft 232 kts 338°
2026-04-30 18:26 63.45655 11.45828 4522 ft 224 kts 279°
2026-04-30 18:26 63.45689 11.42345 4229 ft 226 kts 270°
2026-04-30 18:26 63.45720 11.38824 4019 ft 226 kts 271°
2026-04-30 18:27 63.45765 11.32035 3776 ft 217 kts 266°
2026-04-30 18:27 63.45763 11.28666 3463 ft 217 kts 267°
2026-04-30 18:28 63.45748 11.22252 2858 ft 198 kts 269°
2026-04-30 18:28 63.45746 11.19273 2608 ft 183 kts 268°
2026-04-30 18:28 63.45739 11.13928 2003 ft 164 kts 271°
2026-04-30 18:29 63.45735 11.11517 1758 ft 150 kts 274°
2026-04-30 18:29 63.45740 11.04811 1153 ft 137 kts 271°
2026-04-30 18:30 63.45745 11.00600 673 ft 136 kts 270°
2026-04-30 18:30 63.45754 10.96396 327 ft 134 kts 269°
2026-04-30 18:31 63.45758 10.94320 119 ft 134 kts 269°
2026-04-30 18:31 63.45762 10.91096 35 ft 58 kts 270°
2026-04-30 18:32 63.45701 10.90422 27 ft 17 kts 221°
2026-04-30 18:32 63.45628 10.90374 27 ft 9 kts 167°
2026-04-30 18:32 63.45599 10.90665 31 ft 12 kts 90°
2026-04-30 18:33 63.45598 10.90862 34 ft 13 kts 90°
2026-04-30 18:33 63.45569 10.91161 37 ft 7 kts 127°
2026-04-30 18:33 63.45560 10.91280 38 ft 7 kts 90°
2026-04-30 18:34 63.45560 10.91403 39 ft 7 kts 90°
2026-04-30 18:34 63.45510 10.91483 39 ft 1 kts 180°
2026-04-30 18:34 63.45503 10.91483 39 ft 0 kts 180°